DW3478 Weather Reports


Display with metric or nautical units.
time (UTC)temp
F
wind
direction
speed
MPH
gust
MPH
rain 1hr
in
rain 24hr
in
rain mn
in
humidity
%
barometer
mb
20260903044305 68 4 1.0 2.0 0.00 0.01 0.00 87 1019.0
20260903043305 68 321 1.0 2.0 0.00 0.01 0.00 87 1019.0
20260903042805 68 349 1.0 2.0 0.00 0.01 0.00 87 1019.0
20260903042306 68 356 2.0 3.0 0.00 0.01 0.00 87 1019.0
20260903041805 68 17 1.0 3.0 0.00 0.01 0.00 87 1019.0
20260903040304 69 7 1.0 3.0 0.00 0.01 0.00 88 1019.0
20260903035804 69 357 1.0 2.0 0.00 0.01 0.00 88 1019.0
20260903035306 69 14 1.0 3.0 0.00 0.01 0.00 88 1019.0
20260903034805 69 353 1.0 3.0 0.00 0.01 0.00 88 1019.0
20260903033804 69 25 2.0 3.0 0.00 0.01 0.00 88 1019.0
20260903033305 69 33 0.0 0.0 0.00 0.01 0.00 88 1019.0
20260903025306 69 83 0.0 2.0 0.00 0.01 0.00 89 1019.0
20260903024805 69 84 1.0 3.0 0.00 0.01 0.00 89 1019.0
20260903024304 69 60 1.0 2.0 0.00 0.01 0.00 89 1019.0
20260903023805 69 84 2.0 3.0 0.00 0.01 0.00 89 1019.0
20260903023304 69 95 1.0 3.0 0.00 0.01 0.00 89 1019.0
20260903021805 69 30 0.0 2.0 0.00 0.01 0.00 89 1019.0
20260903021305 69 18 1.0 3.0 0.00 0.01 0.00 88 1019.0
20260903020305 69 23 1.0 2.0 0.00 0.01 0.00 88 1020.0
20260903013805 69 37 1.0 3.0 0.00 0.01 0.00 89 1020.0
20260903012306 69 37 1.0 3.0 0.00 0.01 0.00 89 1020.0
20260903011805 69 17 1.0 3.0 0.00 0.01 0.00 88 1020.0
20260903010805 69 33 1.0 2.0 0.00 0.01 0.00 88 1020.0
20260903004805 69 19 1.0 3.0 0.00 0.01 0.00 88 1020.0
20260903004305 69 16 1.0 3.0 0.00 0.01 0.00 88 1020.0
20260903003304 69 20 2.0 3.0 0.00 0.01 0.00 88 1020.0
20260903002805 69 21 2.0 3.0 0.00 0.01 0.00 88 1020.0
20260903001805 70 17 0.0 0.0 0.00 0.01 0.00 88 1020.0
20260903001304 70 14 0.0 0.0 0.00 0.01 0.00 88 1020.0
20260903000805 70 14 0.0 0.0 0.00 0.01 0.00 88 1020.0
20260902235805 70 14 0.0 0.0 0.00 0.01 0.00 88 1020.0
20260902234805 70 14 1.0 2.0 0.00 0.01 0.00 88 1020.0
20260902233305 71 38 0.0 0.0 0.00 0.01 0.00 88 1020.0
20260902232306 71 38 0.0 0.0 0.00 0.01 0.00 88 1020.0
20260902231805 71 38 0.0 1.0 0.00 0.01 0.00 88 1020.0
20260902231304 71 38 0.0 1.0 0.00 0.01 0.00 88 1020.0
20260902230804 71 52 0.0 1.0 0.00 0.01 0.00 88 1021.0
20260902230305 71 130 0.0 0.0 0.00 0.01 0.00 88 1021.0
20260902225805 71 130 0.0 3.0 0.00 0.01 0.01 88 1021.0
20260902224304 72 139 1.0 2.0 0.00 0.01 0.01 88 1021.0
20260902221805 72 100 0.0 3.0 0.00 0.01 0.01 87 1021.0
20260902221304 72 181 0.0 0.0 0.00 0.01 0.01 87 1021.0
20260902220805 72 181 0.0 2.0 0.00 0.01 0.01 87 1020.0
20260902215306 72 330 0.0 2.0 0.00 0.01 0.01 86 1020.0
20260902214805 72 269 0.0 1.0 0.00 0.01 0.01 86 1020.0
20260902214305 72 299 0.0 5.0 0.00 0.01 0.01 86 1020.0
20260902213305 72 222 0.0 1.0 0.00 0.01 0.01 86 1020.0
20260902212804 72 222 0.0 2.0 0.00 0.01 0.01 86 1020.0
20260902212306 72 246 1.0 3.0 0.00 0.01 0.01 86 1020.0
20260902211805 73 252 0.0 1.0 0.00 0.01 0.01 86 1020.0
20260902211304 73 252 0.0 1.0 0.00 0.01 0.01 86 1020.0
20260902210804 73 252 0.0 1.0 0.00 0.01 0.01 86 1020.0
20260902210304 73 303 0.0 1.0 0.00 0.01 0.01 86 1020.0
20260902203805 73 236 0.0 0.0 0.00 0.01 0.01 85 1019.0
20260902203304 73 236 0.0 0.0 0.00 0.01 0.01 85 1019.0
20260902200805 73 257 1.0 2.0 0.00 0.01 0.01 83 1019.0
20260902200305 73 257 1.0 3.0 0.00 0.01 0.01 82 1019.0
20260902195306 73 223 1.0 2.0 0.00 0.01 0.01 80 1019.0
20260902194804 73 223 1.0 2.0 0.00 0.01 0.01 80 1019.0
20260902194305 74 260 1.0 3.0 0.00 0.01 0.01 79 1019.0
20260902193305 74 209 0.0 2.0 0.00 0.01 0.01 79 1019.0
20260902192804 74 209 0.0 2.0 0.00 0.01 0.01 79 1019.0
20260902192307 74 209 0.0 1.0 0.00 0.01 0.01 79 1019.0
20260902191804 74 209 0.0 2.0 0.00 0.01 0.01 79 1019.0
20260902190804 74 176 1.0 3.0 0.00 0.01 0.01 78 1019.0
20260902185805 74 186 2.0 3.0 0.00 0.01 0.01 78 1019.0
20260902184304 75 153 2.0 3.0 0.00 0.01 0.01 78 1019.0
20260902182805 75 154 1.0 5.0 0.00 0.01 0.01 79 1020.0
20260902182306 75 130 3.0 6.0 0.00 0.01 0.01 79 1020.0
20260902181804 75 148 3.0 6.0 0.00 0.01 0.01 78 1020.0
20260902181305 75 162 3.0 6.0 0.00 0.01 0.01 78 1020.0
20260902180804 75 171 4.0 8.0 0.00 0.01 0.01 79 1020.0
20260902175307 75 151 4.0 7.0 0.00 0.01 0.01 79 1020.0
20260902174805 75 124 4.0 7.0 0.00 0.01 0.01 79 1020.0
20260902174305 75 181 4.0 6.0 0.00 0.01 0.01 79 1020.0
20260902172805 76 136 5.0 7.0 0.00 0.01 0.01 77 1020.0
20260902171805 76 152 3.0 7.0 0.00 0.01 0.01 75 1020.0
20260902165805 76 146 4.0 7.0 0.00 0.01 0.01 76 1020.0
20260902164304 76 167 4.0 7.0 0.00 0.01 0.01 75 1020.0
20260902163804 77 139 4.0 7.0 0.00 0.01 0.01 74 1020.0
20260902163304 77 155 6.0 9.0 0.00 0.01 0.01 74 1020.0
20260902162307 77 166 5.0 9.0 0.00 0.01 0.01 74 1020.0
20260902155804 77 175 7.0 12.0 0.00 0.01 0.01 73 1021.0
20260902155307 77 154 6.0 10.0 0.00 0.01 0.01 74 1021.0
20260902154804 77 155 7.0 10.0 0.00 0.01 0.01 73 1021.0
20260902154305 77 153 7.0 12.0 0.00 0.01 0.01 73 1021.0
20260902151806 78 149 5.0 7.0 0.00 0.01 0.01 72 1021.0
20260902151306 77 183 5.0 9.0 0.00 0.01 0.01 74 1021.0
20260902145805 78 210 5.0 10.0 0.00 0.01 0.01 74 1021.0
20260902145306 77 210 5.0 9.0 0.00 0.01 0.01 74 1021.0
20260902142306 79 211 6.0 9.0 0.00 0.01 0.01 69 1021.0
20260902141806 80 244 5.0 9.0 0.00 0.01 0.01 66 1021.0
20260902135307 77 235 7.0 14.0 0.00 0.01 0.01 70 1021.0
20260902133305 82 283 3.0 7.0 0.00 0.01 0.01 64 1021.0
20260902130306 78 277 5.0 10.0 0.00 0.01 0.01 69 1021.0
20260902124806 79 289 3.0 8.0 0.00 0.01 0.01 71 1021.0
20260902124305 77 262 5.0 10.0 0.00 0.01 0.01 73 1021.0
20260902122805 77 257 4.0 8.0 0.00 0.01 0.01 73 1021.0
20260902122305 77 246 5.0 10.0 0.00 0.01 0.01 75 1021.0
20260902121806 75 244 5.0 7.0 0.00 0.01 0.01 76 1021.0
20260902114305 75 214 4.0 9.0 0.00 0.01 0.01 76 1021.0
20260902113305 76 192 5.0 6.0 0.00 0.01 0.01 74 1021.0
20260902112805 76 210 5.0 6.0 0.00 0.01 0.01 74 1021.0
20260902112306 75 206 5.0 8.0 0.00 0.01 0.01 75 1021.0
20260902111805 76 198 4.0 7.0 0.00 0.01 0.01 76 1021.0
20260902111306 77 211 5.0 7.0 0.00 0.01 0.01 73 1021.0
20260902105306 75 167 5.0 6.0 0.00 0.01 0.01 75 1021.0
20260902104806 76 195 5.0 7.0 0.00 0.01 0.01 75 1021.0
20260902104306 76 178 3.0 7.0 0.00 0.01 0.01 76 1021.0
20260902102805 74 184 4.0 6.0 0.00 0.01 0.01 79 1021.0
20260902100305 74 208 3.0 5.0 0.00 0.01 0.01 77 1021.0
20260902095805 74 223 3.0 6.0 0.00 0.01 0.01 78 1021.0
20260902095307 74 201 3.0 6.0 0.00 0.01 0.01 77 1021.0
20260902094805 74 200 3.0 5.0 0.00 0.01 0.01 79 1021.0
20260902092305 74 173 3.0 6.0 0.00 0.01 0.01 75 1021.0
20260902091805 74 163 3.0 6.0 0.00 0.01 0.01 75 1021.0
20260902091306 74 153 3.0 7.0 0.00 0.01 0.01 76 1021.0
20260902090805 74 165 4.0 7.0 0.00 0.01 0.01 75 1021.0
20260902084305 73 174 3.0 3.0 0.00 0.01 0.01 79 1021.0
20260902083305 72 107 2.0 3.0 0.00 0.01 0.01 79 1021.0
20260902082805 72 158 1.0 3.0 0.00 0.01 0.01 81 1021.0
20260902082309 71 169 2.0 3.0 0.00 0.01 0.01 81 1021.0
20260902081805 71 187 2.0 3.0 0.00 0.01 0.01 81 1021.0
20260902081305 71 242 0.0 3.0 0.00 0.01 0.01 81 1021.0
20260902075805 70 355 0.0 1.0 0.00 0.01 0.01 87 1020.0
20260902074805 68 340 0.0 1.0 0.00 0.01 0.01 90 1020.0
20260902073805 67 14 1.0 2.0 0.00 0.01 0.01 90 1020.0
20260902073305 67 335 1.0 2.0 0.00 0.01 0.01 90 1020.0
20260902072805 66 335 1.0 2.0 0.00 0.01 0.01 89 1020.0
20260902063305 66 355 1.0 3.0 0.00 0.01 0.01 91 1020.0
20260902062805 66 334 1.0 3.0 0.00 0.01 0.01 91 1020.0
20260902062306 66 340 1.0 2.0 0.00 0.01 0.01 91 1020.0
20260902060305 66 334 1.0 3.0 0.01 0.01 0.01 91 1020.0
20260902053805 66 13 0.0 2.0 0.01 0.01 0.01 91 1020.0
20260902053305 67 345 1.0 2.0 0.01 0.01 0.01 91 1020.0
20260902051805 67 321 1.0 2.0 0.00 0.00 0.00 91 1020.0
20260902051305 67 347 0.0 2.0 0.00 0.00 0.00 91 1020.0
20260902045306 67 11 1.0 3.0 0.00 0.00 0.00 91 1020.0
20260902044805 67 349 1.0 2.0 0.00 0.00 0.00 90 1020.0